Lid_Strength_Index
11 12 14 13 13 13 13 15 15 13 11 13 13 13 11 10 10 10 11 6 6 6 5 4 3 3 4 4 4 4 3 3 2 1 2 1 2 1 0 0 -0 0 -0 -1
12 14 11 11 11 12 13 14 14 12 10 12 12 12 11 10 8 8 7 7 7 6 5 4 4 3 3 4 4 4 3 3 2 1 1 1 1 1 0 0 0 0 -0 -0
13 11 9 10 11 11 13 14 13 13 11 11 12 13 12 11 8 7 7 7 6 6 6 5 4 3 3 3 3 3 3 2 1 1 1 1 1 1 1 1 1 1 1 1
12 10 10 11 11 11 14 10 10 11 13 15 12 16 13 11 10 9 8 7 7 6 5 5 6 5 5 4 3 2 1 2 1 1 1 2 2 3 1 1 1 1 1 1
12 11 11 11 11 9 12 9 10 11 13 15 14 16 15 11 12 10 8 7 6 6 6 6 7 7 6 5 4 4 4 3 3 3 1 2 2 2 2 2 2 1 1 1
11 9 9 10 9 9 9 11 12 14 15 17 15 16 17 14 12 10 8 7 6 6 6 6 5 5 6 6 5 5 5 4 4 3 3 3 4 4 3 2 2 1 1 1
11 11 10 8 11 11 11 15 19 19 18 18 14 15 15 11 9 9 9 9 8 7 6 6 6 6 6 6 5 5 5 5 4 5 5 4 3 3 3 2 2 2 2 2
15 16 11 9 12 14 13 15 18 21 20 18 13 16 15 9 8 7 7 8 8 9 8 8 8 8 6 6 6 6 6 6 5 5 5 5 5 5 5 4 3 1 1 1
15 15 10 9 10 10 12 15 13 16 16 19 16 14 11 9 9 8 8 9 9 8 8 8 7 6 6 6 6 6 5 6 5 5 6 6 6 6 6 6 5 4 3 2
13 16 11 10 9 10 11 10 16 15 21 22 18 17 17 13 11 9 9 8 8 8 7 7 7 8 7 6 6 6 6 7 6 7 6 6 6 6 6 5 5 3 2 2
12 14 15 12 13 13 12 14 14 14 16 20 21 18 11 12 10 10 8 7 7 7 6 6 6 6 7 7 6 6 6 6 7 7 7 7 7 6 5 5 5 3 3 2
13 15 17 15 12 9 11 13 13 17 18 15 17 17 10 10 9 8 8 7 6 5 6 5 5 5 6 7 6 6 6 7 7 6 7 6 7 6 6 6 6 5 4 3
12 16 18 16 14 12 13 12 12 13 14 17 19 17 9 9 9 8 8 7 6 6 5 5 5 6 5 6 6 7 6 7 6 6 7 7 7 7 6 6 6 5 4 4
10 15 16 17 15 14 14 12 12 13 17 16 16 14 11 10 10 9 8 7 6 6 5 5 5 5 5 6 8 7 6 7 7 6 6 6 6 5 5 5 5 5 5 4
12 15 15 14 13 12 12 12 12 14 13 16 13 14 11 9 9 8 7 7 6 6 5 5 5 4 5 6 6 6 6 6 7 7 7 6 6 6 5 5 4 5 4 4
13 15 15 14 11 11 13 12 12 12 12 12 12 12 8 7 7 8 7 7 7 6 6 5 4 5 6 6 6 5 5 5 5 6 5 4 4 4 4 4 4 4 4 4
14 15 17 18 14 14 16 14 13 11 11 12 14 12 9 9 9 8 7 7 7 6 5 6 7 6 5 5 5 5 4 4 5 5 5 4 4 4 4 4 4 4 4 4
15 16 17 18 16 20 14 11 10 10 10 10 10 9 9 8 9 7 6 6 6 6 5 6 6 6 5 5 5 4 4 5 5 5 5 4 4 4 4 4 4 4 4 4
13 16 18 19 18 15 12 10 10 12 12 9 10 8 8 8 8 9 7 7 7 6 6 5 5 5 5 6 5 4 5 5 5 5 4 4 4 4 4 4 4 4 4 4
13 14 16 18 18 20 13 9 7 9 14 8 8 8 8 9 12 10 7 6 6 5 4 5 5 6 5 5 5 5 5 5 5 4 4 3 3 3 3 3 4 3 3 3
16 16 17 20 16 14 10 8 7 15 14 8 7 8 9 9 9 7 6 5 5 5 5 5 6 6 5 5 5 5 5 5 4 4 4 3 3 3 3 4 4 4 3 3
15 17 17 18 19 18 8 8 12 10 9 8 8 8 8 8 7 6 6 6 6 6 5 5 5 6 5 5 6 6 6 4 4 4 4 4 3 4 3 4 4 3 4 4
16 14 15 15 15 11 9 8 7 7 8 8 7 6 6 7 7 7 7 7 7 6 6 6 6 6 5 5 5 6 5 5 4 4 4 4 4 3 3 4 4 4 4 4
14 11 14 13 12 10 8 7 6 5 6 6 5 5 5 7 7 7 7 8 8 7 7 7 7 6 6 5 4 4 4 3 3 3 4 4 4 4 4 4 4 4 4 4
13 13 14 14 11 10 8 7 6 5 5 6 5 5 5 6 7 7 8 8 8 7 7 6 7 6 6 5 4 4 4 3 3 4 4 4 4 5 5 4 4 4 3 4
13 13 16 14 12 12 10 8 6 6 6 5 6 7 7 7 7 7 8 8 8 7 7 7 7 7 6 5 5 4 3 3 3 4 4 4 5 5 5 5 5 6 6 7